User: anonymous   Login
Location: Unspecified
(0.0000°N, 0.0000°E)
Time: 11:10:13
(UTC+00:00)
Language:

SO-67 - Orbit

View from above orbital plane
View from above orbital plane
View from above satellite
View from above satellite

Ground track
Ground track

The orbit data is extracted from the following two-line orbital elements,

1 35870U 09049F   17291.15610448  .00008764  00000-0  13177-3 0  9991
2 35870  97.0990 306.8336 0002407  40.3850   0.0145 15.55083995452327
Epoch (UTC): 18 October 2017 03:44:47
Eccentricity: 0.0002407
inclination: 97.0990°
perigee height: 400 km
apogee height: 403 km
right ascension of ascending node: 306.8336°
argument of perigee: 40.3850°
revolutions per day: 15.55083995
mean anomaly at epoch: 0.0145°
orbit number at epoch: 45232

The dashed part of the orbit path shows where the satellite is in the earth's shadow,  

DLR